AO-07 1 07530U 74089B 21105.85795240 -.00000038 00000-0 44578-4 0 9996 2 07530 101.8491 80.4404 0012402 140.9526 332.6900 12.53648197124126 UO-11 1 14781U 84021B 21105.52186680 .00000142 00000-0 23471-4 0 9999 2 14781 97.5934 108.4627 0006989 292.7174 67.3301 14.83270485976602 LO-19 1 20442U 90005G 21105.64542085 .00000007 00000-0 19316-4 0 9990 2 20442 98.7353 60.5616 0011601 351.5795 8.5193 14.32982346631892 HUBBLE 1 20580U 90037B 21105.36821735 .00000543 00000-0 21928-4 0 9996 2 20580 28.4691 122.4856 0002937 102.7868 277.3020 15.09611169501521 MET-2/21 1 22782U 93055A 21105.48642748 -.00000016 00000-0 -28371-4 0 9999 2 22782 82.5514 353.8925 0023556 107.0516 66.2174 13.83835683394813 AO-27 1 22825U 93061C 21105.55075781 -.00000018 00000-0 11266-4 0 9995 2 22825 98.9221 121.6097 0007854 211.5841 148.4869 14.30111388436995 IO-26 1 22826U 93061D 21105.74589267 -.00000008 00000-0 14966-4 0 9995 2 22826 98.9162 121.7244 0008591 198.2093 161.8782 14.30449710437519 FO-29 1 24278U 96046B 21105.67083791 -.00000010 00000-0 28348-4 0 9999 2 24278 98.5710 181.9510 0349513 312.4339 44.7722 13.53102797218005 NOAA-15 1 25338U 98030A 21105.84988512 .00000030 00000-0 31022-4 0 9990 2 25338 98.6886 134.9157 0011568 102.6548 257.5926 14.26022180192324 GO-32 1 25397U 98043D 21105.78748218 -.00000002 00000-0 18855-4 0 9998 2 25397 98.7658 51.5301 0000170 249.6806 110.4354 14.23705519182791 ISS 1 25544U 98067A 21105.85051440 .00000597 00000-0 19055-4 0 9991 2 25544 51.6435 291.0491 0002776 232.6757 260.4185 15.48886895278933 NO-44 1 26931U 01043C 21105.39799573 -.00000045 00000-0 14393-4 0 9994 2 26931 67.0504 83.1683 0007258 264.7377 95.2896 14.30613794 20214 SO-50 1 27607U 02058C 21105.54935590 .00000035 00000-0 25408-4 0 9997 2 27607 64.5550 170.6988 0033842 45.0650 315.3188 14.75733945985276 CO-55 1 27844U 03031E 21105.72585143 .00000052 00000-0 43080-4 0 9992 2 27844 98.6825 114.8853 0008678 259.1523 100.8678 14.22300965923108 CO-57 1 27848U 03031J 21105.55966063 .00000034 00000-0 35118-4 0 9994 2 27848 98.6883 115.2886 0008551 274.6626 85.3575 14.21878851922872 RS-22 1 27939U 03042A 21105.90341831 .00000155 00000-0 36443-4 0 9992 2 27939 98.1302 243.4716 0014321 116.0814 244.1862 14.66968484938355 NOAA-18 1 28654U 05018A 21105.76114614 .00000101 00000-0 78885-4 0 9990 2 28654 98.9993 170.3613 0015355 99.4510 260.8398 14.12597833819683 CO-58 1 28895U 05043F 21105.33781531 .00000171 00000-0 41671-4 0 9996 2 28895 98.0480 239.9913 0017742 52.7311 307.5507 14.63892494824774 Falconsat-3 1 30776U 07006E 21105.50114610 .00004648 00000-0 11410-3 0 9995 2 30776 35.4329 144.6438 0001490 34.8103 325.2722 15.40172320783392 CO-65 1 32785U 08021C 21105.48727555 .00000321 00000-0 39986-4 0 9993 2 32785 97.6070 86.7929 0012151 205.9406 154.1204 14.88681417702805 AAUSAT2 1 32788U 08021F 21105.53000908 .00001063 00000-0 10085-3 0 9990 2 32788 97.5042 102.8343 0013211 117.7593 242.4970 14.95489934704453 DO-64 1 32789U 08021G 21105.67994856 .00001543 00000-0 10205-3 0 9997 2 32789 97.3828 143.4533 0011734 7.4789 352.6613 15.08742638707466 CO-66 1 32791U 08021J 21105.49568323 .00000512 00000-0 56621-4 0 9994 2 32791 97.5683 92.7730 0013369 169.1698 190.9812 14.91345969703474 RS-30 1 32953U 08025A 21105.69249318 .00000028 00000-0 12906-3 0 9999 2 32953 82.4983 89.9611 0020517 111.8203 248.5068 12.43101374585189 PRISM 1 33493U 09002B 21105.65739413 .00000271 00000-0 28768-4 0 9995 2 33493 98.1836 65.2014 0015664 129.8836 230.3765 14.97559030664933 NOAA-19 1 33591U 09005A 21105.71832689 .00000025 00000-0 39096-4 0 9996 2 33591 99.1887 124.8546 0013118 311.0466 48.9570 14.12460579628064 SRMSAT 1 37841U 11058D 21105.27635837 .00000318 00000-0 29813-4 0 9997 2 37841 19.9731 322.9236 0011826 319.8050 198.7082 14.10690689490761 HRBE 1 37855U 11061F 21105.57153461 .00001704 00000-0 89549-4 0 9999 2 37855 101.7173 356.3791 0167307 257.7307 100.5128 15.07448082516704 RS-40 1 38735U 12041C 21105.54939500 .00000015 00000-0 40550-4 0 9992 2 38735 82.4803 172.3142 0016460 218.9434 141.0464 12.42582393395377 ZACUBE-1 1 39417U 13066B 21105.50222590 .00000365 00000-0 51668-4 0 9998 2 39417 97.5900 93.1038 0058930 9.1103 351.1165 14.81474610399750 GOMX-1 1 39430U 13066Q 21105.87459895 .00000269 00000-0 57819-4 0 9990 2 39430 97.8126 32.5407 0149847 312.4919 46.3703 14.59579880393911 LO-74 1 39440U 13066AA 21105.48336707 .00000321 00000-0 51053-4 0 9997 2 39440 97.6709 77.9577 0081431 79.9905 281.0483 14.76202893398332 AO-73 1 39444U 13066AE 21105.52472231 .00000447 00000-0 60637-4 0 9996 2 39444 97.5812 95.4766 0057727 359.8008 0.3173 14.82373395398702 SPROUT 1 39770U 14029E 21105.81976299 .00001074 00000-0 12213-3 0 9996 2 39770 97.9071 217.1782 0010117 60.3811 299.8417 14.88312699374025 DTUSAT-2 1 40030U 14033W 21105.52118713 .00000362 00000-0 44533-4 0 9999 2 40030 97.9146 32.7900 0012626 28.3604 331.8297 14.88944823369952 EO-80 1 40032U 14033Y 21105.54976543 .00000419 00000-0 50605-4 0 9996 2 40032 97.9151 32.8242 0012558 29.0466 331.1447 14.88900506369936 HODOYOSHI-1 1 40299U 14070B 21105.83156375 .00000775 00000-0 34229-4 0 9996 2 40299 97.2899 181.0984 0012100 202.0649 295.6045 15.24599294357879 FIREBIRD FU3 1 40377U 15003B 21105.57927900 .00002968 00000-0 11115-3 0 9995 2 40377 99.0893 233.7036 0118902 24.0953 336.5777 15.22018675343239 FIREBIRD FU4 1 40378U 15003C 21105.42625737 .00003186 00000-0 11880-3 0 9995 2 40378 99.0897 233.6493 0118981 24.4271 336.2534 15.22068253343206 GRIFEX 1 40379U 15003D 21105.58189162 .00002610 00000-0 10808-3 0 9990 2 40379 99.0856 223.6941 0129841 54.9227 306.4097 15.17792978342658 NO-84 1 40654U 15025D 21104.26652382 .00018404 00000-0 15167-3 0 2593 2 40654 54.9849 343.8068 0082023 254.0213 105.1779 15.66099550215941 XW-2A 1 40903U 15049E 21105.80804795 .00003085 00000-0 67577-4 0 9997 2 40903 97.2429 160.4741 0010842 238.8631 212.5860 15.44839499313120 XW-2C 1 40906U 15049H 21105.76774255 .00000816 00000-0 45097-4 0 9994 2 40906 97.4868 108.9096 0015999 49.9668 124.2716 15.16613463308067 XW-2D 1 40907U 15049J 21105.77499269 .00000868 00000-0 47354-4 0 9990 2 40907 97.4848 108.6895 0015334 46.6582 127.5701 15.16917140308094 LILACSAT-2 1 40908U 15049K 21105.84908890 .00000414 00000-0 26107-4 0 9994 2 40908 97.5041 106.6972 0017322 59.3109 60.5259 15.14364373307758 XW-2E 1 40909U 15049L 21105.74765716 .00001520 00000-0 75054-4 0 9996 2 40909 97.4674 112.5923 0014285 35.6939 49.6478 15.19323516308419 XW-2F 1 40910U 15049M 21105.73066752 .00001583 00000-0 79138-4 0 9997 2 40910 97.4735 111.6514 0015474 34.5528 51.9202 15.18826728308208 XW-2B 1 40911U 15049N 21105.82269753 .00000854 00000-0 46751-4 0 9999 2 40911 97.4857 109.4264 0015364 47.6064 30.3525 15.16835482307998 DCBB 1 40912U 15049P 21105.78233383 .00001649 00000-0 76606-4 0 9990 2 40912 97.4468 116.0578 0014516 10.0993 164.4482 15.21336818308663 TW-1A 1 40928U 15051D 21105.73084899 .00004754 00000-0 10186-3 0 9991 2 40928 97.0822 132.1499 0010540 152.0314 299.3295 15.45178086312008 IO-86 1 40931U 15052B 21103.09712633 .00000686 00000-0 64291-5 0 9995 2 40931 5.9988 358.4517 0013163 203.7324 156.1901 14.76669736299622 ATHENOXAT-1 1 41168U 15077C 21105.87964591 .00002779 00000-0 10651-3 0 9999 2 41168 14.9891 0.9796 0011094 20.9042 65.5343 15.15456865295274 ChubuSat-2 1 41338U 16012B 21105.60450850 .00000480 00000-0 30359-4 0 9992 2 41338 31.0026 225.5413 0013698 231.2991 128.6420 15.00491192283153 ChubuSat-3 1 41339U 16012C 21105.70026257 .00000386 00000-0 22979-4 0 9998 2 41339 31.0117 222.2251 0013407 240.7587 119.1709 15.00641717283169 Horyu-4 1 41340U 16012D 21105.48026879 .00000722 00000-0 47381-4 0 9993 2 41340 31.0044 207.9656 0013847 267.8659 92.0391 15.01826964283310 e-st@r-II 1 41459U 16025D 21105.84034043 .00001981 00000-0 10116-3 0 9993 2 41459 98.1309 238.3578 0159723 273.4339 84.8659 15.07719278272984 AAUSAT4 1 41460U 16025E 21105.79570925 .00002265 00000-0 11015-3 0 9998 2 41460 98.1297 241.8778 0147178 258.4544 100.0159 15.10611131273255 LO-87 1 41557U 16033B 21105.78504042 .00002051 00000-0 74892-4 0 9996 2 41557 97.3914 200.0941 0014744 96.7411 19.2280 15.29178641271951 NuSat2 1 41558U 16033C 21105.87220791 .00001999 00000-0 68600-4 0 9993 2 41558 97.4010 203.7147 0013790 91.2315 29.2400 15.31275146272149 Lapan A3 1 41603U 16040E 21105.73187118 .00000263 00000-0 15260-4 0 9999 2 41603 97.2638 155.0200 0012076 217.3462 281.3497 15.19998825267056 Pratham 1 41783U 16059A 21105.41178760 .00000071 00000-0 22639-4 0 9991 2 41783 97.9717 157.6544 0034948 85.2532 275.2660 14.63127297243032 TY-1 1 41844U 16066D 21105.82202153 .00001261 00000-0 52351-4 0 9992 2 41844 97.4010 116.6875 0014910 6.1739 77.2356 15.25605392246357 CAS-2T 1 41847U 16066G 21105.44373185 .00000137 00000-0 30345-4 0 9997 2 41847 98.6079 164.2882 0366161 48.5942 314.6111 14.38173833232826 EO-88 1 42017U 17008BX 21105.43257074 .00002986 00000-0 11251-3 0 9999 2 42017 97.3204 174.1580 0005236 349.2020 10.9106 15.27844274231639 CAS-4B 1 42759U 17034B 21105.67051003 .00000194 00000-0 25010-4 0 9999 2 42759 43.0161 166.2277 0007934 136.5272 9.3807 15.10151419211654 CAS-4A 1 42761U 17034D 21105.59494067 .00000177 00000-0 23969-4 0 9996 2 42761 43.0167 165.7375 0008129 133.9806 350.7641 15.10232627211646 NIUSat 1 42766U 17036B 21105.68646112 .00001452 00000-0 65366-4 0 9997 2 42766 97.2576 153.8222 0016185 42.4881 317.7605 15.22530590211661 Aalto 1 1 42775U 17036L 21105.39494233 .00001316 00000-0 59563-4 0 9991 2 42775 97.2546 153.8189 0014683 43.0132 317.2250 15.22516452211603 URSA MAIOR 1 42776U 17036M 21105.40796865 .00001423 00000-0 63701-4 0 9998 2 42776 97.2561 154.2620 0014452 42.6085 317.6270 15.22763826211629 Max Valier Sat 1 42778U 17036P 21105.57983440 .00001477 00000-0 64825-4 0 9992 2 42778 97.2623 156.2343 0013054 45.2392 314.9905 15.23408010211718 Pegasus 1 42784U 17036V 21105.41806362 .00001920 00000-0 81492-4 0 9991 2 42784 97.2578 156.5120 0012741 48.7918 311.4416 15.24192131211752 NUDATSat 1 42787U 17036Y 21105.89538171 .00002469 00000-0 98633-4 0 9990 2 42787 97.2622 159.1768 0012268 40.0907 320.1233 15.25996321211791 SUCHAI 1 1 42788U 17036Z 21105.38322222 .00002317 00000-0 95669-4 0 9991 2 42788 97.2588 157.3863 0012162 46.8337 313.3915 15.24932068211870 SKCUBE 1 42789U 17036AA 21105.40189319 .00002147 00000-0 89525-4 0 9998 2 42789 97.2581 157.1462 0012104 47.3425 312.8831 15.24690748211784 VZLUSAT 1 1 42790U 17036AB 21105.42951448 .00003142 00000-0 12487-3 0 9990 2 42790 97.2607 158.7153 0011296 44.3870 315.8272 15.25975127211871 VENTA 1 1 42791U 17036AC 21105.57800620 .00002020 00000-0 84459-4 0 9995 2 42791 97.2578 157.3378 0011802 47.4622 312.7611 15.24654071211802 Robusta 1B 1 42792U 17036AD 21105.31472788 .00002167 00000-0 89704-4 0 9998 2 42792 97.2584 157.4168 0011688 47.8888 312.3341 15.24921183211805 D-SAT 1 42794U 17036AF 21105.56629456 .00000453 00000-0 43877-4 0 9990 2 42794 97.4666 128.7829 0127267 76.3335 285.2018 14.91510389207685 TechnoSat 1 42829U 17042E 21105.71717154 .00000334 00000-0 38820-4 0 9996 2 42829 97.4784 338.5557 0014257 3.2682 356.8628 14.91253581204331 QIKCOM-1 1 42983U 98067NF 21105.48493088 .00010164 00000-0 10384-3 0 9990 2 42983 51.6369 219.0713 0003269 105.8641 254.2715 15.65723267197531 AO-91 1 43017U 17073E 21105.30111164 .00000683 00000-0 57516-4 0 9994 2 43017 97.7111 11.7859 0256108 146.1328 215.6541 14.79427626183780 EcAMSat 1 43019U 98067NG 21105.60037174 .00030254 00000-0 19417-3 0 9993 2 43019 51.6366 189.1596 0002471 70.0933 290.0332 15.75974709280262 PICSAT 1 43132U 18004X 21105.75371988 .00002118 00000-0 86119-4 0 9994 2 43132 97.4120 180.8609 0010730 73.5388 286.7029 15.25596438181120 AO-92 1 43137U 18004AC 21105.47946619 .00001802 00000-0 74931-4 0 9995 2 43137 97.4102 180.1520 0010489 76.7601 283.4806 15.25036498181069 TianYi 2 1 43155U 18008A 21105.81238028 .00000922 00000-0 56771-4 0 9999 2 43155 97.4071 172.6514 0017193 179.3353 317.8769 15.12277037178604 Zhou Enlai 1 43156U 18008B 21105.85432091 .00001513 00000-0 91954-4 0 9999 2 43156 97.4126 172.5275 0014488 177.7052 272.7091 15.11876564178551 TianYi 6 1 43158U 18008D 21105.78230666 .00001156 00000-0 72205-4 0 9998 2 43158 97.4065 171.1201 0013471 177.7060 321.9778 15.11325482178477 S-Net D 1 43186U 18014G 21105.32623771 -.00000112 00000-0 -47215-5 0 9996 2 43186 97.6809 14.0369 0009847 297.7814 62.2409 14.97016083174859 S-Net B 1 43187U 18014H 21105.45981710 -.00000112 00000-0 -46591-5 0 9997 2 43187 97.6805 14.1369 0009843 297.2352 62.7866 14.97015532174877 S-Net A 1 43188U 18014J 21105.45981720 -.00000119 00000-0 -52897-5 0 9992 2 43188 97.6809 14.1788 0009841 297.3379 62.6840 14.97014305174873 S-Net C 1 43189U 18014K 21105.46029872 -.00000097 00000-0 -34274-5 0 9999 2 43189 97.6805 14.1305 0009844 297.0998 62.9219 14.97014195173422 FMN 1 1 43192U 18015A 21105.87806976 .00003770 00000-0 14209-3 0 9990 2 43192 97.4780 240.9927 0016279 102.9313 64.0417 15.27588394178036 Shaonian Xing 1 43199U 18015H 21105.74182748 .00002578 00000-0 99140-4 0 9990 2 43199 97.4562 238.2389 0017485 112.0141 358.0311 15.27201406178073 SurfSat 1 43614U 18070B 21105.46065703 .00005529 00000-0 13180-3 0 9991 2 43614 93.0246 279.7947 0011922 243.2308 116.7728 15.41531857144962 CP-7 DAVE 1 43615U 18070C 21105.72628926 .00005395 00000-0 12974-3 0 9994 2 43615 93.0250 279.8687 0012139 241.9646 118.0383 15.41266563144995 ELFIN-B 1 43616U 18070D 21105.53629033 .00009361 00000-0 20652-3 0 9993 2 43616 93.0207 279.9095 0012178 241.0966 118.9070 15.43816526145064 ELFIN-A 1 43617U 18070E 21105.44910972 .00009035 00000-0 19669-3 0 9993 2 43617 93.0258 280.6603 0011656 237.2977 122.7156 15.44219505145067 STARS-Me Mother 1 43640U 98067PQ 21105.44253691 .00111772 00000-0 42129-3 0 9990 2 43640 51.6275 200.2899 0003997 11.2513 348.8580 15.86919180144256 CubeBel 1 1 43666U 18083E 21105.74190932 .00001434 00000-0 71381-4 0 9995 2 43666 97.4615 134.8873 0015522 34.3124 56.6073 15.19133182136499 Changshagaoxin 1 43669U 18083H 21105.74760851 .00001017 00000-0 53346-4 0 9999 2 43669 97.4522 132.1594 0011546 31.5907 58.0943 15.17954825136372 Ten-Koh 1 43677U 18084G 21105.61710473 .00000335 00000-0 40249-4 0 9990 2 43677 97.9102 228.5299 0014798 239.2507 120.7254 14.90435407133949 PO-101 1 43678U 18084H 21105.80370761 .00000029 00000-0 86115-5 0 9997 2 43678 97.9127 230.7960 0008429 257.8014 102.2238 14.91731019134093 IRVINE 01 1 43693U 18088D 21105.77239739 .00005720 00000-0 22691-3 0 9993 2 43693 85.0357 236.5864 0014794 253.4528 106.5091 15.25034502134886 QO-100 1 43700U 18090A 21105.68715729 .00000147 00000-0 00000 0 0 9997 2 43700 0.0151 147.6865 0002348 269.7300 59.7934 1.00272203 8983 Reaktor Hello World 1 43743U 18096AA 21105.47883979 .00002629 00000-0 96978-4 0 9991 2 43743 97.3881 183.4742 0018581 136.1300 224.1419 15.28525434132519 MinXSS-2 1 43758U 18099A 21105.43011070 .00000439 00000-0 44246-4 0 9999 2 43758 97.6710 177.9199 0013910 258.3044 101.6616 14.95985614129096 AO-95 1 43770U 18099N 21105.41323777 .00000861 00000-0 83309-4 0 9993 2 43770 97.6692 176.9812 0012867 267.7484 92.2264 14.95260629129032 RANGE-B 1 43772U 18099Q 21105.45396066 .00000364 00000-0 37967-4 0 9997 2 43772 97.6771 177.9207 0012770 253.2420 106.7401 14.95541493129040 RANGE-A 1 43773U 18099R 21105.41443924 .00000663 00000-0 65525-4 0 9993 2 43773 97.6629 176.3674 0011960 253.3150 106.6758 14.95169970129023 MOVE-II 1 43780U 18099Y 21105.46637612 .00000961 00000-0 91150-4 0 9999 2 43780 97.6703 177.4971 0011907 263.2873 96.6994 14.95824342129053 SNUSat 2 1 43782U 18099AA 21105.45621827 .00000307 00000-0 32818-4 0 9991 2 43782 97.6686 177.3425 0011373 251.9238 108.0744 14.95504425129052 SnugLite 1 43784U 18099AC 21105.67048421 .00000814 00000-0 78352-4 0 9996 2 43784 97.6653 177.2953 0013512 259.6945 100.2753 14.95624886129104 ITASat 1 1 43786U 18099AE 21105.67952118 .00000821 00000-0 79110-4 0 9996 2 43786 97.6710 177.8760 0013548 259.1268 100.8429 14.95563017129108 EAGLET 1 1 43790U 18099AJ 21105.46136077 .00000251 00000-0 27507-4 0 9996 2 43790 97.6695 178.0491 0012017 264.4827 95.5024 14.95925944128795 ESEO 1 43792U 18099AL 21105.43694098 -.00000243 00000-0 -16673-4 0 9992 2 43792 97.6668 177.6657 0011781 262.0117 97.9767 14.95716093128848 CSIM 1 43793U 18099AM 21105.42929147 .00000722 00000-0 68549-4 0 9997 2 43793 97.6695 177.9445 0011263 256.1691 103.8278 14.96485697128841 Astrocast 0.1 1 43798U 18099AS 21105.41969748 .00000949 00000-0 89442-4 0 9998 2 43798 97.6707 178.1805 0010947 240.6461 119.3668 14.96100557129096 JO-97 1 43803U 18099AX 21105.45277533 .00000238 00000-0 26486-4 0 9993 2 43803 97.6667 177.4139 0013697 260.1653 99.8022 14.95793428129073 Suomi 100 1 43804U 18099AY 21105.45711000 .00000360 00000-0 37340-4 0 9993 2 43804 97.6665 177.3897 0013753 260.1252 99.8417 14.95767367129082 Al Farabi 2 1 43805U 18099AZ 21105.80151751 .00000617 00000-0 60093-4 0 9990 2 43805 97.6670 177.9182 0013760 257.7574 102.2107 14.95967192129149 CHOMPTT 1 43855U 18104G 21105.61194283 .00001408 00000-0 56572-4 0 9994 2 43855 85.0372 335.1685 0018140 25.4494 334.7638 15.23792754129523 ISAT 1 43879U 18111D 21105.81495494 .00000359 00000-0 36653-4 0 9990 2 43879 97.6879 14.1693 0012154 317.8098 42.2192 14.96556196123684 UWE-4 1 43880U 18111E 21105.47870467 .00000690 00000-0 65253-4 0 9997 2 43880 97.6900 14.2761 0011194 320.5627 39.4779 14.96796694125668 Sparrow 1 43881U 18111F 21105.25117201 .00000022 00000-0 69812-5 0 9999 2 43881 97.6916 14.1726 0011607 319.8702 40.1661 14.96854329125636 Lume 1 1 43908U 18111AJ 21105.71227394 .00001662 00000-0 66987-4 0 9995 2 43908 97.2395 2.4161 0021393 149.4373 210.8118 15.26002362128104 FO-98 1 43933U 19003B 21105.68437138 .00012285 00000-0 48727-3 0 9993 2 43933 97.1893 149.4775 0014901 251.5468 108.4151 15.25407505124533 FO-99 1 43937U 19003F 21105.68416260 .00001865 00000-0 75984-4 0 9998 2 43937 97.1840 151.3667 0021920 232.2847 127.6405 15.25467285124690 MYSat 1 1 44045U 18092F 21105.44628401 .00005780 00000-0 15572-3 0 9998 2 44045 51.6396 13.5118 0010122 341.6947 18.3672 15.39299436121752 AstroCast 0.2 1 44083U 19018F 21105.73875756 .00001745 00000-0 78607-4 0 9994 2 44083 97.3789 167.9824 0012816 184.8435 175.2679 15.22319494113352 AISTechSat 3 1 44103U 19018AB 21105.70688237 .00001114 00000-0 48978-4 0 9998 2 44103 97.3656 168.3091 0012616 197.4128 284.6664 15.23888949113453 AISat 1 1 44104U 19018AC 21105.76850083 .00001411 00000-0 46364-4 0 9992 2 44104 97.4283 182.8640 0055979 217.1095 142.6271 15.31862707114073 Raavana-1 1 44329U 98067QE 21104.62845120 .00039608 00000-0 30799-3 0 9995 2 44329 51.6347 253.0883 0003431 28.6430 331.4755 15.71343953104108 Uguisu 1 44330U 98067QF 21105.68956884 .00048868 00000-0 38238-3 0 9998 2 44330 51.6328 248.0969 0003479 32.9377 327.1837 15.71099385104243 NepaliSat-1 1 44331U 98067QG 21105.57538083 .00049404 00000-0 38196-3 0 9994 2 44331 51.6322 248.0835 0003444 33.4413 326.6802 15.71381658104242 Prox-1 1 44339U 19036A 21105.41191945 .00001194 00000-0 23109-3 0 9998 2 44339 24.0016 11.2245 0011419 209.8610 150.1230 14.53486917 96011 Oculus-ASR 1 44348U 19036K 21105.54180356 .00015535 00000-0 21292-3 0 9991 2 44348 28.5141 191.9681 0336101 306.8810 50.1418 15.10509093 99382 Armadillo 1 44352U 19036P 21105.48241867 .00024969 00000-0 32455-3 0 9998 2 44352 28.5287 175.4895 0308997 332.1453 26.2902 15.17158231 99494 NO-104 1 44354U 19036R 21105.43396885 .00017326 00000-0 23261-3 0 9990 2 44354 28.5291 186.7268 0331401 313.5511 43.8001 15.11934394 99428 NO-103 1 44355U 19036S 21105.43823507 .00035546 00000-0 40768-3 0 9992 2 44355 28.5241 151.2210 0277379 11.4951 349.1825 15.25994680 99776 CP9 1 44360U 19036X 21105.31022002 .00083988 -44021-5 64775-3 0 9990 2 44360 28.5042 100.9665 0215573 95.0114 267.5130 15.45553044100146 Move-IIb 1 44398U 19038N 21105.83461003 .00001502 00000-0 87308-4 0 9991 2 44398 97.5768 70.1521 0024781 161.6231 198.5903 15.13407799 98299 SONATE 1 44400U 19038Q 21105.59744552 .00000533 00000-0 34292-4 0 9998 2 44400 97.5833 69.8378 0025127 162.3923 197.8180 15.12436534 98233 BeeSat 9 1 44412U 19038AC 21105.64949964 .00001331 00000-0 78570-4 0 9995 2 44412 97.5823 70.1182 0022518 166.1944 193.9908 15.13093565 97956 JAISAT-1 1 44419U 19038F 21105.44101374 .00001340 00000-0 78049-4 0 9996 2 44419 97.5827 70.4083 0021419 165.0769 195.1099 15.13577349 98269 LightSail-2 1 44420U 19036AC 21105.35651826 .00011770 00000-0 23700-2 0 9998 2 44420 24.0081 354.9734 0022416 216.1370 143.7607 14.59610382 94326 Taurus 1 1 44530U 19059C 21105.75914320 .00000606 00000-0 18273-3 0 9996 2 44530 98.5502 195.5785 0012383 337.0267 23.0369 14.45988898 84023 Duchifat 3 1 44854U 19089C 21105.39928095 .00000485 00000-0 45225-4 0 9995 2 44854 36.9638 113.5031 0008789 343.0814 16.9634 14.99418425 73636 OPS-SAT 1 44878U 19092F 21105.50406427 .00001464 00000-0 78737-4 0 9990 2 44878 97.4745 289.9238 0014630 34.4272 325.7906 15.16351447 73296 TO-108 1 44881U 19093C 21105.72017255 .00000082 00000-0 17256-4 0 9990 2 44881 97.9266 185.2239 0016146 132.9028 227.3551 14.81438046 71449 FloripaSat 1 1 44885U 19093G 21105.77630532 .00000317 00000-0 46297-4 0 9996 2 44885 97.9282 185.7704 0015763 140.9037 219.3323 14.82249514 71489 RS-44 1 44909U 19096E 21105.53350237 .00000021 00000-0 43774-4 0 9990 2 44909 82.5211 154.6227 0216395 240.0464 117.8997 12.79709582 60794 SwampSat-2 1 45115U 19071E 21105.32814062 .00043919 00000-0 81759-3 0 9998 2 45115 51.6377 329.2505 0007851 85.1257 275.0628 15.48381405 67644 HO-107 1 45119U 19071J 21105.35579609 .00003207 00000-0 10286-3 0 9993 2 45119 51.6431 342.7487 0012080 64.4037 295.8192 15.35356243 67479 Phoenix 1 45258U 98067RB 21105.49326829 .00011627 00000-0 17441-3 0 9993 2 45258 51.6395 283.6860 0005314 23.3089 336.8142 15.55392981 65406 AztechSat-1 1 45261U 98067RE 21105.72183579 .00033253 00000-0 38045-3 0 9998 2 45261 51.6373 275.4634 0005181 37.2235 322.9117 15.61813706 65557 QARMAN 1 45263U 98067RG 21105.76468784 .00024136 00000-0 30835-3 0 9997 2 45263 51.6390 278.7577 0005492 35.5311 324.6047 15.59102004 65551 Quetzal 1 1 45598U 98067RL 21105.47997392 .00020280 00000-0 27687-3 0 9995 2 45598 51.6395 283.6211 0002086 133.5435 226.5731 15.57455772 54738 BY70-2 1 45857U 20042B 21105.77465627 .00001187 00000-0 17618-3 0 9993 2 45857 97.9856 182.1758 0012407 63.3560 296.8908 14.76847531 42299 UPMSat 2 1 46276U 20061E 21105.46679556 .00000701 00000-0 39471-4 0 9997 2 46276 97.4357 180.5030 0001358 147.5768 212.5548 15.16372981 33998 AmicalSat 1 46287U 20061R 21105.77048268 .00000819 00000-0 53715-4 0 9990 2 46287 97.4911 180.4039 0001770 348.0113 12.1075 15.10353015 33882 SALSAT 1 46495U 20068K 21105.63226691 .00001143 00000-0 88390-4 0 9999 2 46495 97.6888 43.5165 0015797 286.6628 73.2864 15.03412153 29890 BY70-3 1 46839U 20079N 21105.75123106 .00002878 00000-0 91894-4 0 9992 2 46839 97.2437 180.8582 0008958 77.0333 79.4965 15.33246679 24595 SPOC 1 46921U 98067RR 21105.23713735 .00011813 00000-0 19200-3 0 9991 2 46921 51.6422 291.0052 0002201 192.8415 167.2519 15.53155965 25023 Bobcat-1 1 46922U 98067RS 21105.76045725 .00016905 00000-0 26013-3 0 9994 2 46922 51.6431 287.7610 0001965 202.6579 157.4325 15.54331893 25071 Neutron-1 1 46923U 98067RT 21105.24766913 .00011906 00000-0 19427-3 0 9994 2 46923 51.6421 291.0735 0001999 206.7900 153.2988 15.53037401 25051 CAPE 3 1 47309U 21002A 21105.52302763 .00001043 00000-0 59119-4 0 9992 2 47309 60.6807 167.1846 0031540 7.9888 352.1694 15.20529297 13318 AO-109 1 47311U 21002C 21105.53634242 .00000707 00000-0 43076-4 0 9997 2 47311 60.6847 166.6892 0026546 10.1174 350.0441 15.21442921 13297 MiTEE 1 1 47314U 21002F 21105.53338070 .00001941 00000-0 93643-4 0 9996 2 47314 60.6840 166.0852 0024752 358.8968 1.2060 15.22742226 13321 ExoCube 2 1 47319U 21002L 21105.62302007 .00000970 00000-0 55101-4 0 9990 2 47319 60.6860 166.5347 0028585 13.8190 346.3672 15.21085875 13270 UVSQ-SAT 1 47438U 21006AB 21105.42331364 .00001005 00000-0 60562-4 0 9999 2 47438 97.4933 167.7601 0011605 321.4232 38.6169 15.12992426 12525 YUSAT 1 1 47439U 21006AC 21105.42484727 .00001057 00000-0 63572-4 0 9993 2 47439 97.4934 167.7597 0011482 321.6572 38.3841 15.12967055 12527 SOMP 2b 1 47445U 21006AJ 21105.43120652 .00000993 00000-0 60118-4 0 9996 2 47445 97.4905 167.7174 0011333 325.7440 34.3059 15.12841109 12525 IDEASSat 1 47458U 21006AX 21105.43842193 .00001011 00000-0 61407-4 0 9995 2 47458 97.4996 167.8092 0010354 324.0364 36.0169 15.12703949 12528 RSP-01 1 47925U 98067SB 21105.80447031 .00011771 00000-0 21170-3 0 9994 2 47925 51.6430 291.0294 0002593 159.5711 200.5382 15.50298060 5059 TAUSAT-1 1 47926U 98067SC 21105.21850080 .00015028 00000-0 26468-3 0 9996 2 47926 51.6428 293.8661 0003870 160.4183 199.6955 15.50647153 4951 Tsuru 1 47927U 98067SD 21105.80472612 .00010793 00000-0 19504-3 0 9990 2 47927 51.6427 291.0310 0002638 156.8537 203.2571 15.50260409 5058 STARS-EC 1 47928U 98067SE 21105.22553620 .00009731 00000-0 17707-3 0 9999 2 47928 51.6425 293.9110 0005800 233.7823 126.2630 15.50185223 4940 Maya-2 1 47929U 98067SF 21105.22388568 .00010544 00000-0 19059-3 0 9993 2 47929 51.6430 293.9019 0002750 152.1822 207.9315 15.50281771 4929 OPUSAT-II 1 47930U 98067SG 21105.80409932 .00015628 00000-0 27786-3 0 9992 2 47930 51.6430 291.0270 0002737 153.3962 206.7168 15.50345654 5051 GuaraniSat-1 1 47931U 98067SH 21105.22362160 .00010833 00000-0 19548-3 0 9990 2 47931 51.6429 293.9004 0002760 151.4739 208.6401 15.50296527 4967 CubeSX-Sirius-HSE 1 47951U 21022V 21105.72247282 .00000352 00000-0 28596-4 0 9990 2 47951 97.5651 9.1234 0022455 160.3131 287.0763 15.05562826 3616 KSU-Cubesat 1 47954U 21022Y 21105.70463530 .00000230 00000-0 20108-4 0 9993 2 47954 97.5641 9.1107 0022058 160.4320 199.7758 15.05671237 3336 Orbicraft-Zorkiy 1 47960U 21022AE 21105.78694791 .00000295 00000-0 24597-4 0 9990 2 47960 97.5667 9.1968 0021934 159.9574 285.1615 15.05659628 3132 STECCO 1 47962U 21022AG 21105.76182642 .00000304 00000-0 24607-4 0 9990 2 47962 97.5617 9.1979 0017196 156.5760 237.3734 15.06637110 2432 DIY-1 1 47963U 21022AH 21105.55264293 .00003032 00000-0 20622-3 0 9994 2 47963 97.5624 8.9996 0020083 155.1644 205.0555 15.06920285 2422 SMOG 1 47964U 21022AJ 21105.76768189 .00000352 00000-0 27661-4 0 9994 2 47964 97.5626 9.2094 0020184 154.4384 291.9839 15.06895115 2436 /EX
